Location: Bon Acre
(42.6442°N, 73.5758°W)
Time: 00:15:00
(UTC+00:00)

Okean 1 - Visible Passes

Search period start: 14 March 2026 00:00
Search period end: 24 March 2026 00:00
Orbit: 462 x 480 km, 82.5° (Epoch: 13 March)

Date Brightness Start Highest point End Pass type
(mag) Time Alt. Az. Time Alt. Az. Time Alt. Az.
16 Mar 5.2 10:14:02 10° SSE 10:17:14 31° E 10:20:27 10° NNE visible
17 Mar 6.2 09:45:47 10° SE 09:48:14 18° E 09:50:41 10° NE visible
19 Mar 3.1 10:20:44 10° S 10:24:19 85° E 10:27:54 10° N visible
20 Mar 4.4 09:51:46 10° SSE 09:55:09 42° E 09:58:33 10° NNE visible
21 Mar 5.6 09:23:12 10° SE 09:26:02 23° E 09:28:53 10° NE visible
22 Mar 6.3 08:55:19 10° ESE 08:56:57 13° E 08:58:35 10° ENE visible
23 Mar 2.9 09:58:29 10° SSW 10:02:02 71° W 10:05:35 10° N visible
